Weather History for Wenatchee, WA

Change the Weather History Date:

Friday, December 21, 2012

  Actual Average Record
Temperature  
Mean Temperature 35 °F 25 °F  
Max Temperature 37 °F 30 °F 55 °F (1974)
Min Temperature 32 °F 19 °F -6 °F (1983)
Degree Days  
Heating Degree Days 30 40  
Month to date heating degree days 670 817  
Since 1 July heating degree days 2285 2699  
Cooling Degree Days 0 0  
Month to date cooling degree days 0 0  
Year to date cooling degree days 294 249  
Moisture  
Dew Point 28 °F    
Average Humidity 92    
Maximum Humidity 100    
Minimum Humidity 82    
Precipitation  
Precipitation 0.07 in 0.08 in 0.71 in (1964)
Month to date precipitation 2.03 1.73  
Year to date precipitation 22.57 16.28  
Snow  
Snow 0.60 in 0.50 in - ()
Month to date snowfall 15.4 10.7  
Since 1 July snowfall 22.6 18.6  
Snow Depth 2.00 in    
Sea Level Pressure  
Sea Level Pressure 29.83 in    
Wind  
Wind Speed 4 mph (WNW)    
Max Wind Speed 9 mph    
Max Gust Speed -    
Visibility 3 miles    
Events Fog , Snow    
T = Trace of Precipitation, MM = Missing Value Source: NWS Daily Summary

Daily Weather History Graph

Daily Weather History Graph

Search for Another Location

Airport:

Trip Planner

Search our weather history database for the weather conditions in past years. The results will help you decide how hot, cold, wet, or windy it might be!

Date:

Astronomy

Dec. 21, 2012 Rise Set
Actual Time 7:45 AM PST 4:12 PM PST
Civil Twilight 7:09 AM PST 4:48 PM PST
Nautical Twilight 6:30 AM PST 5:28 PM PST
Astronomical Twilight 5:53 AM PST 6:05 PM PST
Moon 12:17 PM PST (12/21) 1:20 AM PST (12/21)
Length of Visible Light 9h 39m
Length of Day
8h 27m
Waxing Gibbous, 66% of the Moon is Illuminated
Dec 21
Waxing Gibbous
Dec 28
Full
Jan 4
Last Quarter
Jan 11
New
Jan 18
First Quarter

Hourly Weather History & Observations

Time (PST) Temp. Windchill Dew Point Humidity Pressure Visibility Wind Dir Wind Speed Gust Speed Precip Events Conditions
12:55 AM 30.9 °F 22.8 °F 26.1 °F 82% 29.86 in 10.0 mi WNW 9.2 mph - N/A   Clear
1:55 AM 28.9 °F 21.9 °F 26.1 °F 89% 29.89 in 10.0 mi West 6.9 mph - N/A   Partly Cloudy
2:55 AM 27.0 °F 19.5 °F 25.0 °F 92% 29.88 in 10.0 mi West 6.9 mph - N/A   Clear
3:55 AM 26.1 °F 21.9 °F 24.1 °F 92% 29.90 in 9.0 mi North 3.5 mph - N/A   Clear
4:55 AM 28.0 °F 22.8 °F 24.1 °F 85% 29.91 in 10.0 mi North 4.6 mph - N/A   Mostly Cloudy
5:41 AM 26.6 °F 22.6 °F 23.0 °F 86% 29.87 in 10.0 mi WSW 3.5 mph - N/A   Overcast
5:55 AM 27.0 °F - 24.1 °F 89% 29.91 in 10.0 mi Calm Calm - N/A   Overcast
6:55 AM 28.9 °F - 26.1 °F 89% 29.92 in 10.0 mi Calm Calm - N/A   Overcast
7:55 AM 28.0 °F - 25.0 °F 88% 29.93 in 10.0 mi Calm Calm - N/A   Overcast
8:55 AM 28.0 °F 24.2 °F 25.0 °F 88% 29.92 in 4.0 mi West 3.5 mph - 0.00 in Snow Light Snow
9:55 AM 28.9 °F 22.8 °F 26.1 °F 89% 29.93 in 10.0 mi WSW 5.8 mph - 0.00 in   Overcast
10:41 AM 28.4 °F - 26.6 °F 93% 29.88 in 2.0 mi Calm Calm - 0.00 in Snow Light Snow
10:55 AM 28.9 °F 25.2 °F 27.0 °F 92% 29.91 in 1.0 mi WSW 3.5 mph - 0.00 in Snow Light Snow
11:09 AM 28.4 °F 24.6 °F 26.6 °F 93% 29.87 in 1.0 mi West 3.5 mph - 0.00 in Snow Light Snow
11:55 AM 28.9 °F 25.2 °F 27.0 °F 92% 29.89 in 1.0 mi West 3.5 mph - 0.01 in Snow Light Snow
12:02 PM 28.4 °F 23.3 °F 26.6 °F 93% 29.85 in 0.8 mi West 4.6 mph - 0.00 in Snow Light Snow
12:06 PM 28.4 °F 23.3 °F 26.6 °F 93% 29.86 in 1.0 mi WSW 4.6 mph - 0.00 in Snow Light Snow
12:28 PM 28.4 °F 24.6 °F 26.6 °F 93% 29.85 in 0.8 mi NW 3.5 mph - 0.01 in Snow Light Snow
12:35 PM 28.4 °F 24.6 °F 26.6 °F 93% 29.85 in 1.0 mi WNW 3.5 mph - 0.01 in Snow Light Snow
12:55 PM 28.9 °F 23.9 °F 27.0 °F 92% 29.88 in 1.0 mi West 4.6 mph - 0.01 in Snow Light Snow
1:04 PM 28.4 °F 23.3 °F 26.6 °F 93% 29.84 in 0.8 mi West 4.6 mph - 0.01 in Snow Light Snow
1:19 PM 28.4 °F 23.3 °F 28.4 °F 100% 29.84 in 0.5 mi West 4.6 mph - 0.02 in Fog , Snow Snow
1:38 PM 30.2 °F - 28.4 °F 93% 29.83 in 0.2 mi Calm Calm - 0.04 in Fog , Snow Heavy Snow
1:55 PM 30.0 °F 26.5 °F 28.0 °F 92% 29.86 in 0.8 mi WSW 3.5 mph - 0.05 in Snow Light Snow
2:03 PM 30.2 °F 26.7 °F 28.4 °F 93% 29.82 in 1.0 mi West 3.5 mph - 0.00 in Snow Light Snow
2:17 PM 30.2 °F 25.4 °F 28.4 °F 93% 29.82 in 2.0 mi WNW 4.6 mph - 0.00 in Snow Light Snow
2:42 PM 30.2 °F 24.3 °F 28.4 °F 93% 29.82 in 5.0 mi NW 5.8 mph - 0.00 in Snow Light Snow
2:55 PM 30.0 °F 25.2 °F 28.0 °F 92% 29.86 in 3.0 mi NW 4.6 mph - 0.00 in   Overcast
3:07 PM 30.2 °F 26.7 °F 28.4 °F 93% 29.82 in 4.0 mi NW 3.5 mph - N/A   Overcast
3:27 PM 30.2 °F - 28.4 °F 93% 29.82 in 1.8 mi Calm Calm - 0.00 in Snow Light Snow
3:46 PM 30.2 °F 26.7 °F 28.4 °F 93% 29.81 in 2.5 mi West 3.5 mph - 0.00 in Snow Light Snow
3:49 PM 30.2 °F 25.4 °F 28.4 °F 93% 29.82 in 3.0 mi West 4.6 mph - 0.00 in Snow Light Snow
3:55 PM 30.9 °F 25.2 °F 28.0 °F 89% 29.86 in 3.0 mi West 5.8 mph - 0.00 in Snow Light Snow
4:07 PM 30.2 °F 24.3 °F 28.4 °F 93% 29.82 in 1.5 mi West 5.8 mph - 0.00 in   Overcast
4:14 PM 30.2 °F 24.3 °F 28.4 °F 93% 29.82 in 0.2 mi West 5.8 mph - 0.00 in Fog Light Freezing Fog
4:25 PM 30.2 °F 25.4 °F 28.4 °F 93% 29.82 in 1.0 mi WNW 4.6 mph - 0.00 in   Overcast
4:34 PM 30.2 °F 25.4 °F 28.4 °F 93% 29.82 in 3.0 mi WNW 4.6 mph - 0.00 in   Overcast
4:41 PM 30.2 °F 25.4 °F 28.4 °F 93% 29.82 in 4.0 mi NW 4.6 mph - 0.00 in   Overcast
4:55 PM 30.0 °F 24.1 °F 28.0 °F 92% 29.86 in 7.0 mi WNW 5.8 mph - 0.00 in   Overcast
5:37 PM 30.2 °F 25.4 °F 28.4 °F 93% 29.81 in 3.0 mi WNW 4.6 mph - 0.00 in Snow Light Snow
5:53 PM 30.2 °F 24.3 °F 28.4 °F 93% 29.80 in 5.0 mi West 5.8 mph - 0.00 in   Overcast
5:55 PM 30.0 °F 24.1 °F 28.9 °F 96% 29.84 in 5.0 mi West 5.8 mph - 0.00 in   Overcast
6:32 PM 30.2 °F 25.4 °F 28.4 °F 93% 29.80 in 2.5 mi NW 4.6 mph - 0.00 in Snow Light Snow
6:52 PM 30.2 °F 25.4 °F 28.4 °F 93% 29.80 in 2.5 mi NW 4.6 mph - 0.00 in Snow Light Snow
6:55 PM 30.0 °F 26.5 °F 28.0 °F 92% 29.84 in 2.5 mi NW 3.5 mph - 0.00 in Snow Light Snow
7:28 PM 30.2 °F 26.7 °F 28.4 °F 93% 29.80 in 1.8 mi West 3.5 mph - 0.00 in Snow Light Snow
7:41 PM 30.2 °F 25.4 °F 28.4 °F 93% 29.79 in 2.0 mi West 4.6 mph - 0.01 in Snow Light Snow
7:55 PM 30.0 °F - 28.9 °F 96% 29.82 in 2.0 mi Calm Calm - 0.01 in Snow Light Snow
8:10 PM 30.2 °F 26.7 °F 28.4 °F 93% 29.78 in 2.0 mi West 3.5 mph - 0.00 in Snow Light Snow
8:23 PM 30.2 °F 25.4 °F 28.4 °F 93% 29.78 in 2.0 mi West 4.6 mph - 0.00 in Snow Light Snow
8:31 PM 30.2 °F 25.4 °F 28.4 °F 93% 29.79 in 1.5 mi West 4.6 mph - 0.00 in Snow Light Snow
8:47 PM 30.2 °F 24.3 °F 28.4 °F 93% 29.78 in 1.5 mi NW 5.8 mph - 0.00 in Snow Light Snow
8:55 PM 30.0 °F 26.5 °F 28.9 °F 96% 29.81 in 2.5 mi NW 3.5 mph - 0.00 in Snow Light Snow
9:16 PM 30.2 °F - 28.4 °F 93% 29.77 in 1.8 mi Calm Calm - 0.00 in Snow Light Snow
9:55 PM 30.0 °F 26.5 °F 28.9 °F 96% 29.81 in 1.8 mi West 3.5 mph - 0.00 in Snow Light Snow
10:17 PM 30.2 °F 26.7 °F 28.4 °F 93% 29.76 in 1.2 mi NW 3.5 mph - 0.01 in Snow Light Snow
10:39 PM 30.2 °F - 28.4 °F 93% 29.75 in 1.2 mi Calm Calm - 0.02 in Snow Light Snow
10:55 PM 30.9 °F - 28.9 °F 92% 29.79 in 1.2 mi Calm Calm - 0.02 in Snow Light Snow
11:19 PM 30.2 °F - 28.4 °F 93% 29.75 in 1.2 mi Calm Calm - 0.01 in Snow Light Snow
11:53 PM 30.2 °F 26.7 °F 28.4 °F 93% 29.74 in 2.5 mi West 3.5 mph - 0.02 in Snow Light Snow
11:55 PM 30.0 °F 26.5 °F 28.9 °F 96% 29.78 in 2.5 mi West 3.5 mph - 0.02 in Snow Light Snow